This is the latest recevied weather packets stored in our database for station/object KY0TEQ-13. If no packets are shown the sender has not sent any weather packets the latest 10 day(s).
| Time | Temp. | Humidity | Pressure | Rain* | Wind** | Luminosity | Snow |
|---|---|---|---|---|---|---|---|
| 1777427236 | 11.67° C | 20% | 1303.3 hPa | 0 mm | - | 8 W/m² | - |
| 1777426934 | 11.67° C | 18% | 1303.3 hPa | 0 mm | - | 10 W/m² | - |
| 1777426631 | 11.67° C | 19% | 1303.2 hPa | 0 mm | - | 13 W/m² | - |
| 1777426327 | 11.67° C | 18% | 1303.2 hPa | 0 mm | - | 15 W/m² | - |
| 1777426022 | 12.22° C | 18% | 1303.2 hPa | 0 mm | - | 18 W/m² | - |
| 1777425717 | 12.78° C | 17% | 1303 hPa | 0 mm | - | 20 W/m² | - |
| 1777425412 | 13.33° C | 16% | 1303 hPa | 0 mm | - | 23 W/m² | - |
| 1777425109 | 13.33° C | 17% | 1303.2 hPa | 0 mm | - | 28 W/m² | - |
| 1777424805 | 13.33° C | 15% | 1303.2 hPa | 0 mm | - | 43 W/m² | - |
| 1777424500 | 13.89° C | 15% | 1303.2 hPa | 0 mm | - | 52 W/m² | - |
| 1777424196 | 14.44° C | 14% | 1303.2 hPa | 0 mm | - | 61 W/m² | - |
| 1777423894 | 14.44° C | 14% | 1302.9 hPa | 0 mm | - | 76 W/m² | - |
| 1777423591 | 14.44° C | 14% | 1303 hPa | 0 mm | - | 87 W/m² | - |
| 1777423286 | 14.44° C | 13% | 1303.2 hPa | 0 mm | - | 94 W/m² | - |
| 1777422981 | 14.44° C | 12% | 1303 hPa | 0 mm | - | 98 W/m² | - |
| 1777422676 | 14.44° C | 13% | 1302.9 hPa | 0 mm | - | 115 W/m² | - |
| 1777422371 | 15° C | 13% | 1302.8 hPa | 0 mm | - | 130 W/m² | - |
| 1777422066 | 14.44° C | 13% | 1303 hPa | 0 mm | - | 147 W/m² | - |
| 1777421766 | 14.44° C | 14% | 1302.9 hPa | 0 mm | - | 172 W/m² | - |
| 1777421462 | 15° C | 13% | 1302.9 hPa | 0 mm | - | 197 W/m² | - |
| 1777421158 | 15° C | 13% | 1302.8 hPa | 0 mm | - | 217 W/m² | - |
| 1777420855 | 15.56° C | 12% | 1303 hPa | 0 mm | - | 241 W/m² | - |
| 1777420551 | 15° C | 11% | 1302.8 hPa | 0 mm | - | 234 W/m² | - |
| 1777420247 | 15° C | 11% | 1303 hPa | 0 mm | - | 269 W/m² | - |
| 1777419942 | 15° C | 14% | 1303 hPa | 0 mm | - | 283 W/m² | - |
* Rain latest hour (hover to see other rain measurements)
** Current wind speed in m/s (hover to see current wind gust speed)